Location: Unspecified
(0.0000°N, 0.0000°E)
Time: 19:50:21
(UTC+02:00)

ARIANE DEB (SPELDA) - Visible Passes

Search period start: 06 July 2015 00:00
Search period end: 16 July 2015 00:00
Orbit: 309 x 33159 km, 3.6° (Epoch: 06 July)

Date Brightness Start Highest point End Pass type
(mag) Time Alt. Az. Time Alt. Az. Time Alt. Az.
06 Jul 6.7 01:39:27 10° W 10:30:34 85° S 10:39:16 10° E visible
06 Jul 6.6 20:43:12 10° W 20:53:46 83° N 05:45:08 10° E visible
08 Jul 6.2 02:20:00 10° W 11:08:11 87° S 11:14:44 10° E visible
08 Jul 7.2 21:18:47 10° W 21:33:13 85° N 06:23:07 10° E visible
09 Jul 3.5 16:32:37 10° WNW 16:34:46 47° N 16:39:56 10° E visible
10 Jul 5.7 03:02:34 10° W 11:44:37 90° SSE 11:49:38 10° E visible
10 Jul 7.7 21:54:07 10° W 22:14:25 87° N 06:59:47 10° E visible
11 Jul 3.9 17:07:16 10° WNW 17:09:55 56° N 17:19:09 10° E visible
12 Jul 5.2 03:49:16 10° W 12:20:06 86° N 12:24:00 10° E visible
12 Jul 8.2 22:29:12 10° W 22:59:23 89° N 07:35:25 10° E visible
13 Jul 4.4 17:41:21 10° WNW 17:44:42 64° N 18:01:23 10° E visible
14 Jul 4.9 04:47:00 10° W 12:54:49 78° N 12:57:51 10° E visible
14 Jul 8.3 23:04:09 10° W 23:54:46 89° S 08:10:09 10° E visible
15 Jul 4.9 18:14:55 10° WNW 18:19:14 71° N 18:51:46 10° E daylight
15 Jul 4.9 18:14:56 10° WNW 18:19:14 71° N 18:51:47 10° E daylight
15 Jul 4.9 18:14:56 10° WNW 18:19:14 71° N 18:51:46 10° E daylight
